| time (UTC) | temp C | wind direction | speed KPH | gust KPH | rain 1hr cm | rain 24hr cm | rain mn cm | humidity % | barometer mb |
| 20260505101751 | 16 | 187 | 1.6 | 1.6 | 0.00 | 0.00 | 0.00 | 69 | 1003.5 |
| 20260505101247 | 16 | 189 | 4.8 | 4.8 | 0.00 | 0.00 | 0.00 | 69 | 1003.6 |
| 20260505100743 | 16 | 182 | 3.2 | 3.2 | 0.00 | 0.00 | 0.00 | 69 | 1003.4 |
| 20260505100240 | 16 | 188 | 3.2 | 3.2 | 0.00 | 0.00 | 0.00 | 69 | 1003.3 |
| 20260505095735 | 16 | 193 | 3.2 | 3.2 | 0.00 | 0.00 | 0.00 | 70 | 1003.3 |
| 20260505095234 | 16 | 204 | 4.8 | 4.8 | 0.00 | 0.00 | 0.00 | 70 | 1003.6 |
| 20260505094729 | 16 | 202 | 4.8 | 4.8 | 0.00 | 0.00 | 0.00 | 70 | 1003.3 |
| 20260505094226 | 16 | 204 | 3.2 | 4.8 | 0.00 | 0.00 | 0.00 | 71 | 1003.5 |
| 20260505093722 | 15 | 175 | 4.8 | 8.0 | 0.00 | 0.00 | 0.00 | 72 | 1003.6 |
| 20260505093220 | 15 | 202 | 3.2 | 3.2 | 0.00 | 0.00 | 0.00 | 74 | 1003.5 |
| 20260505092716 | 14 | 215 | 3.2 | 4.8 | 0.00 | 0.00 | 0.00 | 77 | 1003.4 |
| 20260505092215 | 13 | 184 | 1.6 | 1.6 | 0.00 | 0.00 | 0.00 | 82 | 1003.5 |
| 20260505091712 | 13 | 153 | 0.0 | 0.0 | 0.00 | 0.00 | 0.00 | 85 | 1003.8 |
| 20260505091210 | 13 | 164 | 0.0 | 0.0 | 0.00 | 0.00 | 0.00 | 86 | 1003.6 |
| 20260505090707 | 13 | 161 | 0.0 | 0.0 | 0.00 | 0.00 | 0.00 | 86 | 1003.6 |
| 20260505090205 | 13 | 165 | 0.0 | 0.0 | 0.00 | 0.00 | 0.00 | 87 | 1003.5 |
| 20260505085702 | 13 | 151 | 0.0 | 0.0 | 0.00 | 0.00 | 0.00 | 87 | 1003.6 |
| 20260505085201 | 13 | 159 | 0.0 | 0.0 | 0.00 | 0.00 | 0.00 | 88 | 1003.5 |
| 20260505084658 | 13 | 156 | 0.0 | 0.0 | 0.00 | 0.00 | 0.00 | 88 | 1003.5 |
| 20260505084156 | 13 | 154 | 0.0 | 0.0 | 0.00 | 0.00 | 0.00 | 87 | 1003.4 |
| 20260505083653 | 13 | 159 | 0.0 | 0.0 | 0.00 | 0.00 | 0.00 | 87 | 1003.5 |
| 20260505083150 | 13 | 159 | 0.0 | 0.0 | 0.00 | 0.00 | 0.00 | 86 | 1003.5 |
| 20260505082645 | 13 | 171 | 0.0 | 0.0 | 0.00 | 0.00 | 0.00 | 85 | 1003.4 |
| 20260505082143 | 13 | 180 | 1.6 | 1.6 | 0.00 | 0.00 | 0.00 | 84 | 1003.8 |
| 20260505081639 | 13 | 195 | 3.2 | 3.2 | 0.00 | 0.00 | 0.00 | 84 | 1004.1 |
| 20260505081137 | 13 | 186 | 1.6 | 1.6 | 0.00 | 0.00 | 0.00 | 84 | 1004.4 |
| 20260505080633 | 14 | 184 | 1.6 | 1.6 | 0.00 | 0.00 | 0.00 | 83 | 1004.0 |
| 20260505080129 | 14 | 197 | 3.2 | 3.2 | 0.00 | 0.00 | 0.00 | 81 | 1004.3 |
| 20260505075625 | 15 | 225 | 6.4 | 8.0 | 0.00 | 0.00 | 0.00 | 80 | 1004.5 |
| 20260505075122 | 15 | 206 | 6.4 | 8.0 | 0.00 | 0.00 | 0.00 | 78 | 1004.4 |
| 20260505074619 | 16 | 214 | 4.8 | 4.8 | 0.00 | 0.00 | 0.00 | 66 | 1004.3 |
| 20260505074116 | 16 | 199 | 3.2 | 3.2 | 0.00 | 0.00 | 0.00 | 66 | 1004.4 |
| 20260505073614 | 16 | 191 | 3.2 | 3.2 | 0.00 | 0.00 | 0.00 | 66 | 1004.0 |
| 20260505073112 | 16 | 185 | 1.6 | 3.2 | 0.00 | 0.00 | 0.00 | 67 | 1004.2 |
| 20260505072607 | 15 | 189 | 1.6 | 1.6 | 0.00 | 0.00 | 0.00 | 68 | 1004.2 |
| 20260505072104 | 15 | 169 | 1.6 | 1.6 | 0.00 | 0.00 | 0.00 | 70 | 1003.9 |
| 20260505071559 | 15 | 192 | 3.2 | 4.8 | 0.00 | 0.00 | 0.00 | 71 | 1003.9 |
| 20260505071057 | 15 | 189 | 1.6 | 3.2 | 0.00 | 0.00 | 0.00 | 71 | 1004.1 |
| 20260505070554 | 15 | 195 | 3.2 | 3.2 | 0.00 | 0.00 | 0.00 | 72 | 1004.1 |
| 20260505070050 | 15 | 171 | 0.0 | 1.6 | 0.00 | 0.00 | 0.00 | 74 | 1004.3 |
| 20260505065546 | 15 | 169 | 0.0 | 0.0 | 0.00 | 0.00 | 0.00 | 76 | 1004.4 |
| 20260505065043 | 15 | 182 | 1.6 | 1.6 | 0.00 | 0.00 | 0.00 | 75 | 1004.3 |
| 20260505064540 | 15 | 208 | 3.2 | 4.8 | 0.00 | 0.00 | 0.00 | 75 | 1004.3 |
| 20260505064039 | 15 | 169 | 0.0 | 1.6 | 0.00 | 0.00 | 0.00 | 76 | 1004.1 |
| 20260505063536 | 15 | 191 | 1.6 | 3.2 | 0.00 | 0.00 | 0.00 | 76 | 1003.9 |
| 20260505063031 | 15 | 178 | 1.6 | 1.6 | 0.00 | 0.00 | 0.00 | 76 | 1004.0 |
| 20260505062528 | 15 | 187 | 1.6 | 3.2 | 0.00 | 0.00 | 0.00 | 77 | 1003.9 |
| 20260505062026 | 15 | 184 | 1.6 | 3.2 | 0.00 | 0.00 | 0.00 | 78 | 1003.8 |
| 20260505061523 | 15 | 214 | 6.4 | 8.0 | 0.00 | 0.00 | 0.00 | 77 | 1004.0 |
| 20260505061021 | 15 | 192 | 9.7 | 11.3 | 0.00 | 0.00 | 0.00 | 75 | 1004.2 |
| 20260505060518 | 15 | 229 | 8.0 | 9.7 | 0.00 | 0.00 | 0.00 | 73 | 1004.4 |
| 20260505060015 | 16 | 183 | 6.4 | 9.7 | 0.00 | 0.00 | 0.00 | 69 | 1004.2 |
| 20260505055510 | 16 | 204 | 6.4 | 8.0 | 0.00 | 0.00 | 0.00 | 67 | 1004.2 |
| 20260505055007 | 16 | 217 | 6.4 | 9.7 | 0.00 | 0.00 | 0.00 | 65 | 1004.2 |
| 20260505054504 | 16 | 206 | 6.4 | 8.0 | 0.00 | 0.00 | 0.00 | 63 | 1004.0 |
| 20260505054002 | 16 | 207 | 4.8 | 4.8 | 0.00 | 0.00 | 0.00 | 62 | 1004.0 |
| 20260505053459 | 16 | 227 | 4.8 | 4.8 | 0.00 | 0.00 | 0.00 | 62 | 1004.0 |
| 20260505052955 | 16 | 191 | 4.8 | 4.8 | 0.00 | 0.00 | 0.00 | 61 | 1004.1 |
| 20260505052453 | 17 | 226 | 4.8 | 4.8 | 0.00 | 0.00 | 0.00 | 57 | 1004.4 |
| 20260505051950 | 17 | 209 | 6.4 | 8.0 | 0.00 | 0.00 | 0.00 | 55 | 1004.1 |
| 20260505051447 | 17 | 205 | 4.8 | 4.8 | 0.00 | 0.00 | 0.00 | 54 | 1004.3 |
| 20260505050945 | 17 | 194 | 4.8 | 4.8 | 0.00 | 0.00 | 0.00 | 54 | 1004.4 |
| 20260505050443 | 17 | 188 | 3.2 | 4.8 | 0.00 | 0.00 | 0.00 | 54 | 1004.4 |
| 20260505041411 | 16 | 201 | 1.6 | 3.2 | 0.00 | 0.00 | 0.00 | 54 | 1004.0 |
| 20260505040908 | 16 | 148 | 0.0 | 1.6 | 0.00 | 0.00 | 0.00 | 56 | 1004.0 |
| 20260505040405 | 16 | 180 | 1.6 | 1.6 | 0.00 | 0.00 | 0.00 | 53 | 1004.3 |
| 20260505035902 | 16 | 173 | 0.0 | 0.0 | 0.00 | 0.00 | 0.00 | 53 | 1003.9 |
| 20260505035357 | 16 | 190 | 1.6 | 1.6 | 0.00 | 0.00 | 0.00 | 53 | 1004.0 |
| 20260505034855 | 16 | 170 | 1.6 | 1.6 | 0.00 | 0.00 | 0.00 | 53 | 1004.1 |
| 20260505034351 | 16 | 177 | 1.6 | 1.6 | 0.00 | 0.00 | 0.00 | 52 | 1004.0 |
| 20260505033849 | 16 | 166 | 0.0 | 1.6 | 0.00 | 0.00 | 0.00 | 53 | 1003.9 |
| 20260505033345 | 16 | 174 | 0.0 | 0.0 | 0.00 | 0.00 | 0.00 | 51 | 1004.0 |
| 20260505032844 | 17 | 172 | 1.6 | 1.6 | 0.00 | 0.00 | 0.00 | 50 | 1004.1 |
| 20260505032340 | 17 | 182 | 0.0 | 0.0 | 0.00 | 0.00 | 0.00 | 50 | 1004.1 |
| 20260505031837 | 17 | 193 | 1.6 | 3.2 | 0.00 | 0.00 | 0.00 | 49 | 1004.1 |
| 20260505031333 | 17 | 196 | 3.2 | 3.2 | 0.00 | 0.00 | 0.00 | 49 | 1004.1 |
| 20260505030831 | 16 | 187 | 1.6 | 1.6 | 0.00 | 0.00 | 0.00 | 50 | 1004.1 |
| 20260505030327 | 16 | 183 | 1.6 | 3.2 | 0.00 | 0.00 | 0.00 | 51 | 1004.2 |
| 20260505025822 | 16 | 172 | 1.6 | 1.6 | 0.00 | 0.00 | 0.00 | 52 | 1004.2 |
| 20260505025320 | 15 | 171 | 1.6 | 1.6 | 0.00 | 0.00 | 0.00 | 54 | 1004.1 |
| 20260505024818 | 15 | 173 | 1.6 | 1.6 | 0.00 | 0.00 | 0.00 | 53 | 1004.1 |
| 20260505024316 | 15 | 147 | 0.0 | 0.0 | 0.00 | 0.00 | 0.00 | 55 | 1004.2 |
| 20260505023813 | 15 | 152 | 0.0 | 0.0 | 0.00 | 0.00 | 0.00 | 53 | 1004.1 |
| 20260505023309 | 15 | 180 | 1.6 | 1.6 | 0.00 | 0.00 | 0.00 | 53 | 1004.3 |
| 20260505022807 | 15 | 160 | 0.0 | 0.0 | 0.00 | 0.00 | 0.00 | 53 | 1004.2 |
| 20260505022304 | 15 | 152 | 0.0 | 0.0 | 0.00 | 0.00 | 0.00 | 53 | 1004.3 |
| 20260505021801 | 15 | 158 | 0.0 | 0.0 | 0.00 | 0.00 | 0.00 | 53 | 1004.5 |
| 20260505021257 | 15 | 149 | 0.0 | 0.0 | 0.00 | 0.00 | 0.00 | 53 | 1004.3 |
| 20260505020753 | 15 | 146 | 0.0 | 0.0 | 0.00 | 0.00 | 0.00 | 51 | 1004.2 |
| 20260505020248 | 15 | 153 | 0.0 | 0.0 | 0.00 | 0.00 | 0.00 | 51 | 1004.1 |
| 20260505015746 | 15 | 142 | 0.0 | 0.0 | 0.00 | 0.00 | 0.00 | 51 | 1004.1 |
| 20260505015243 | 16 | 142 | 0.0 | 0.0 | 0.00 | 0.00 | 0.00 | 51 | 1004.3 |
| 20260505014740 | 16 | 142 | 0.0 | 0.0 | 0.00 | 0.00 | 0.00 | 50 | 1004.1 |
| 20260505014237 | 16 | 142 | 0.0 | 0.0 | 0.00 | 0.00 | 0.00 | 50 | 1004.1 |
| 20260505013734 | 16 | 140 | 0.0 | 1.6 | 0.00 | 0.00 | 0.00 | 50 | 1004.2 |
| 20260505013231 | 16 | 142 | 0.0 | 0.0 | 0.00 | 0.00 | 0.00 | 51 | 1004.1 |
| 20260505012729 | 16 | 141 | 0.0 | 0.0 | 0.00 | 0.00 | 0.00 | 50 | 1004.2 |
| 20260505012226 | 16 | 143 | 0.0 | 0.0 | 0.00 | 0.00 | 0.00 | 50 | 1004.3 |
| 20260505011722 | 16 | 144 | 0.0 | 0.0 | 0.00 | 0.00 | 0.00 | 51 | 1004.0 |
| 20260505011219 | 16 | 145 | 0.0 | 0.0 | 0.00 | 0.00 | 0.00 | 47 | 1004.2 |
| 20260505010714 | 16 | 152 | 0.0 | 0.0 | 0.00 | 0.00 | 0.00 | 46 | 1004.2 |
| 20260505010212 | 17 | 153 | 0.0 | 0.0 | 0.00 | 0.00 | 0.00 | 46 | 1004.0 |
| 20260505005708 | 17 | 152 | 0.0 | 0.0 | 0.00 | 0.00 | 0.00 | 45 | 1004.1 |
| 20260505005205 | 17 | 152 | 0.0 | 0.0 | 0.00 | 0.00 | 0.00 | 45 | 1003.9 |
| 20260505004702 | 17 | 153 | 0.0 | 0.0 | 0.00 | 0.00 | 0.00 | 44 | 1004.0 |
| 20260505004159 | 17 | 153 | 0.0 | 0.0 | 0.00 | 0.00 | 0.00 | 44 | 1004.0 |
| 20260505003656 | 17 | 153 | 0.0 | 0.0 | 0.00 | 0.00 | 0.00 | 44 | 1004.0 |
| 20260505003153 | 17 | 153 | 0.0 | 0.0 | 0.00 | 0.00 | 0.00 | 44 | 1003.9 |
| 20260505002649 | 17 | 153 | 0.0 | 0.0 | 0.00 | 0.00 | 0.00 | 44 | 1004.1 |
| 20260505002148 | 17 | 153 | 0.0 | 0.0 | 0.00 | 0.00 | 0.00 | 43 | 1003.8 |
| 20260505001644 | 18 | 153 | 0.0 | 0.0 | 0.00 | 0.00 | 0.00 | 43 | 1003.9 |
| 20260505001142 | 18 | 153 | 0.0 | 0.0 | 0.00 | 0.00 | 0.00 | 44 | 1003.9 |
| 20260505000638 | 18 | 153 | 0.0 | 0.0 | 0.00 | 0.00 | 0.00 | 43 | 1004.1 |
| 20260505000137 | 18 | 154 | 0.0 | 0.0 | 0.00 | 0.00 | 0.00 | 42 | 1003.9 |
| 20260504235632 | 18 | 154 | 0.0 | 0.0 | 0.00 | 0.00 | 0.00 | 41 | 1004.0 |
| 20260504235129 | 18 | 154 | 0.0 | 0.0 | 0.00 | 0.00 | 0.00 | 41 | 1004.0 |
| 20260504234626 | 19 | 154 | 0.0 | 0.0 | 0.00 | 0.00 | 0.00 | 41 | 1003.8 |
| 20260504234124 | 19 | 154 | 0.0 | 0.0 | 0.00 | 0.00 | 0.00 | 40 | 1004.0 |
| 20260504233619 | 20 | 154 | 0.0 | 0.0 | 0.00 | 0.00 | 0.00 | 40 | 1003.8 |
| 20260504233115 | 20 | 168 | 0.0 | 0.0 | 0.00 | 0.00 | 0.00 | 40 | 1003.8 |
| 20260504232613 | 20 | 175 | 0.0 | 1.6 | 0.00 | 0.00 | 0.00 | 38 | 1004.0 |
| 20260504232110 | 21 | 158 | 0.0 | 0.0 | 0.00 | 0.00 | 0.00 | 39 | 1004.0 |
| 20260504231607 | 21 | 175 | 1.6 | 1.6 | 0.00 | 0.00 | 0.00 | 36 | 1003.8 |
| 20260504231103 | 21 | 175 | 0.0 | 1.6 | 0.00 | 0.00 | 0.00 | 39 | 1003.5 |
| 20260504230559 | 21 | 162 | 0.0 | 0.0 | 0.00 | 0.00 | 0.00 | 39 | 1003.8 |
| 20260504230058 | 21 | 176 | 0.0 | 1.6 | 0.00 | 0.00 | 0.00 | 36 | 1003.6 |
| 20260504225555 | 21 | 175 | 0.0 | 0.0 | 0.00 | 0.00 | 0.00 | 36 | 1003.8 |
| 20260504225052 | 21 | 176 | 1.6 | 1.6 | 0.00 | 0.00 | 0.00 | 36 | 1003.6 |
| 20260504224549 | 21 | 175 | 1.6 | 3.2 | 0.00 | 0.00 | 0.00 | 36 | 1003.8 |
| 20260504224046 | 21 | 210 | 3.2 | 3.2 | 0.00 | 0.00 | 0.00 | 35 | 1003.8 |
| 20260504223543 | 21 | 187 | 3.2 | 3.2 | 0.00 | 0.00 | 0.00 | 35 | 1003.9 |
| 20260504223038 | 22 | 186 | 1.6 | 1.6 | 0.00 | 0.00 | 0.00 | 37 | 1004.1 |
| 20260504222536 | 21 | 189 | 3.2 | 3.2 | 0.00 | 0.00 | 0.00 | 35 | 1004.5 |
| 20260504222033 | 21 | 204 | 4.8 | 4.8 | 0.00 | 0.00 | 0.00 | 36 | 1004.1 |
| 20260504221530 | 21 | 196 | 3.2 | 3.2 | 0.00 | 0.00 | 0.00 | 35 | 1004.0 |
| 20260504221027 | 21 | 220 | 3.2 | 4.8 | 0.00 | 0.00 | 0.00 | 35 | 1004.0 |
| 20260504220523 | 22 | 199 | 4.8 | 4.8 | 0.00 | 0.00 | 0.00 | 34 | 1004.1 |
| 20260504220021 | 21 | 222 | 3.2 | 3.2 | 0.00 | 0.00 | 0.00 | 35 | 1004.3 |
| 20260504215517 | 22 | 199 | 3.2 | 3.2 | 0.00 | 0.00 | 0.00 | 37 | 1004.0 |
| 20260504215014 | 21 | 215 | 4.8 | 4.8 | 0.00 | 0.00 | 0.00 | 37 | 1004.0 |
| 20260504214510 | 21 | 198 | 3.2 | 3.2 | 0.00 | 0.00 | 0.00 | 35 | 1004.0 |
| 20260504214006 | 21 | 205 | 4.8 | 4.8 | 0.00 | 0.00 | 0.00 | 37 | 1004.2 |
| 20260504213503 | 21 | 190 | 4.8 | 4.8 | 0.00 | 0.00 | 0.00 | 37 | 1004.2 |
| 20260504213001 | 21 | 194 | 3.2 | 3.2 | 0.00 | 0.00 | 0.00 | 37 | 1004.4 |
| 20260504212456 | 21 | 223 | 4.8 | 4.8 | 0.00 | 0.00 | 0.00 | 36 | 1004.3 |
| 20260504211954 | 21 | 199 | 4.8 | 4.8 | 0.00 | 0.00 | 0.00 | 36 | 1004.2 |
| 20260504211450 | 21 | 224 | 4.8 | 4.8 | 0.00 | 0.00 | 0.00 | 36 | 1004.3 |
| 20260504210948 | 21 | 215 | 8.0 | 9.7 | 0.00 | 0.00 | 0.00 | 36 | 1004.2 |
| 20260504210444 | 21 | 191 | 3.2 | 3.2 | 0.00 | 0.00 | 0.00 | 39 | 1004.5 |
| 20260504205941 | 21 | 257 | 6.4 | 8.0 | 0.00 | 0.00 | 0.00 | 38 | 1004.4 |
| 20260504205439 | 21 | 208 | 8.0 | 8.0 | 0.00 | 0.00 | 0.00 | 40 | 1004.4 |
| 20260504204937 | 21 | 205 | 4.8 | 4.8 | 0.00 | 0.00 | 0.00 | 39 | 1004.5 |
| 20260504204435 | 21 | 236 | 6.4 | 8.0 | 0.00 | 0.00 | 0.00 | 40 | 1004.3 |
| 20260504203934 | 21 | 214 | 4.8 | 4.8 | 0.00 | 0.00 | 0.00 | 38 | 1004.4 |
| 20260504203431 | 21 | 197 | 4.8 | 4.8 | 0.00 | 0.00 | 0.00 | 40 | 1004.5 |
| 20260504202927 | 21 | 205 | 6.4 | 8.0 | 0.00 | 0.00 | 0.00 | 38 | 1004.7 |
| 20260504202424 | 21 | 202 | 6.4 | 8.0 | 0.00 | 0.00 | 0.00 | 42 | 1004.4 |
| 20260504201920 | 21 | 214 | 8.0 | 9.7 | 0.00 | 0.00 | 0.00 | 40 | 1004.8 |
| 20260504201418 | 20 | 230 | 4.8 | 4.8 | 0.00 | 0.00 | 0.00 | 43 | 1004.6 |
| 20260504200915 | 21 | 235 | 6.4 | 8.0 | 0.00 | 0.00 | 0.00 | 42 | 1004.8 |
| 20260504200412 | 21 | 230 | 3.2 | 3.2 | 0.00 | 0.00 | 0.00 | 42 | 1004.9 |
| 20260504195909 | 21 | 243 | 4.8 | 8.0 | 0.00 | 0.00 | 0.00 | 43 | 1004.9 |
| 20260504195404 | 21 | 212 | 4.8 | 8.0 | 0.00 | 0.00 | 0.00 | 43 | 1004.9 |
| 20260504194901 | 21 | 201 | 3.2 | 3.2 | 0.00 | 0.00 | 0.00 | 43 | 1005.0 |
| 20260504194357 | 21 | 247 | 6.4 | 8.0 | 0.00 | 0.00 | 0.00 | 43 | 1005.1 |
| 20260504193853 | 21 | 237 | 6.4 | 8.0 | 0.00 | 0.00 | 0.00 | 44 | 1005.3 |
| 20260504193350 | 20 | 198 | 8.0 | 9.7 | 0.00 | 0.00 | 0.00 | 43 | 1005.2 |
| 20260504192849 | 21 | 260 | 9.7 | 11.3 | 0.00 | 0.00 | 0.00 | 43 | 1005.1 |
| 20260504192346 | 20 | 199 | 4.8 | 4.8 | 0.00 | 0.00 | 0.00 | 43 | 1005.4 |
| 20260504191845 | 20 | 223 | 4.8 | 4.8 | 0.00 | 0.00 | 0.00 | 43 | 1005.4 |
| 20260504191343 | 20 | 218 | 9.7 | 11.3 | 0.00 | 0.00 | 0.00 | 44 | 1005.6 |
| 20260504190838 | 20 | 247 | 11.3 | 12.9 | 0.00 | 0.00 | 0.00 | 43 | 1005.5 |
| 20260504190334 | 20 | 221 | 9.7 | 11.3 | 0.00 | 0.00 | 0.00 | 44 | 1005.7 |
| 20260504185830 | 20 | 206 | 8.0 | 9.7 | 0.00 | 0.00 | 0.00 | 45 | 1005.6 |
| 20260504185327 | 20 | 246 | 6.4 | 8.0 | 0.00 | 0.00 | 0.00 | 45 | 1005.4 |
| 20260504184823 | 20 | 243 | 6.4 | 8.0 | 0.00 | 0.00 | 0.00 | 45 | 1005.5 |
| 20260504184320 | 20 | 262 | 9.7 | 11.3 | 0.00 | 0.00 | 0.00 | 45 | 1005.6 |
| 20260504183815 | 20 | 214 | 6.4 | 8.0 | 0.00 | 0.00 | 0.00 | 48 | 1005.7 |
| 20260504183313 | 20 | 246 | 11.3 | 12.9 | 0.00 | 0.00 | 0.00 | 44 | 1005.8 |
| 20260504182811 | 20 | 247 | 9.7 | 11.3 | 0.00 | 0.00 | 0.00 | 46 | 1005.9 |
| 20260504182308 | 19 | 236 | 8.0 | 9.7 | 0.00 | 0.00 | 0.00 | 47 | 1005.8 |
| 20260504181805 | 20 | 202 | 1.6 | 3.2 | 0.00 | 0.00 | 0.00 | 47 | 1005.8 |
| 20260504181302 | 19 | 238 | 6.4 | 8.0 | 0.00 | 0.00 | 0.00 | 50 | 1005.9 |
| 20260504180801 | 20 | 245 | 9.7 | 14.5 | 0.00 | 0.00 | 0.00 | 46 | 1005.9 |
| 20260504180259 | 19 | 255 | 8.0 | 9.7 | 0.00 | 0.00 | 0.00 | 52 | 1005.9 |
| 20260504175757 | 19 | 254 | 8.0 | 9.7 | 0.00 | 0.00 | 0.00 | 51 | 1005.8 |
| 20260504175253 | 19 | 205 | 4.8 | 8.0 | 0.00 | 0.00 | 0.00 | 48 | 1005.9 |
| 20260504174751 | 18 | 206 | 6.4 | 8.0 | 0.00 | 0.00 | 0.00 | 49 | 1006.0 |
| 20260504174249 | 18 | 203 | 4.8 | 4.8 | 0.00 | 0.00 | 0.00 | 50 | 1006.0 |
| 20260504173745 | 18 | 267 | 6.4 | 8.0 | 0.00 | 0.00 | 0.00 | 48 | 1006.0 |
| 20260504173242 | 18 | 165 | 4.8 | 8.0 | 0.00 | 0.00 | 0.00 | 52 | 1005.9 |
| 20260504172739 | 18 | 205 | 4.8 | 8.0 | 0.00 | 0.00 | 0.00 | 49 | 1006.1 |
| 20260504172236 | 18 | 219 | 6.4 | 8.0 | 0.00 | 0.00 | 0.00 | 49 | 1006.0 |
| 20260504171732 | 18 | 214 | 9.7 | 11.3 | 0.00 | 0.00 | 0.00 | 50 | 1006.2 |
| 20260504171229 | 18 | 211 | 6.4 | 11.3 | 0.00 | 0.00 | 0.00 | 49 | 1006.3 |
| 20260504170726 | 18 | 238 | 9.7 | 11.3 | 0.00 | 0.00 | 0.00 | 50 | 1006.2 |
| 20260504170223 | 17 | 211 | 6.4 | 8.0 | 0.00 | 0.00 | 0.00 | 51 | 1006.1 |
| 20260504160142 | 16 | 215 | 6.4 | 8.0 | 0.00 | 0.00 | 0.00 | 52 | 1006.5 |
| 20260504151109 | 15 | 228 | 8.0 | 11.3 | 0.00 | 0.00 | 0.00 | 52 | 1007.1 |
| 20260504150607 | 15 | 221 | 4.8 | 4.8 | 0.00 | 0.00 | 0.00 | 52 | 1007.0 |
| 20260504150104 | 15 | 206 | 6.4 | 8.0 | 0.00 | 0.00 | 0.00 | 51 | 1007.1 |
| 20260504141032 | 13 | 246 | 4.8 | 4.8 | 0.00 | 0.00 | 0.00 | 55 | 1007.5 |
| 20260504140529 | 13 | 211 | 8.0 | 9.7 | 0.00 | 0.00 | 0.00 | 53 | 1007.4 |
| 20260504130453 | 11 | 208 | 4.8 | 4.8 | 0.00 | 0.00 | 0.00 | 56 | 1007.7 |
| 20260504110340 | 10 | 198 | 3.2 | 3.2 | 0.00 | 0.00 | 0.00 | 58 | 1007.8 |